FW0202 Weather Reports


Display with metric or nautical units.
time (UTC)temp
F
wind
direction
speed
MPH
gust
MPH
rain 1hr
in
rain 24hr
in
rain mn
in
humidity
%
barometer
mb
20260903221157 69 190 3.0 4.0 0.00 0.00 0.00 69 1000.8
20260903220652 69 196 3.0 4.0 0.00 0.00 0.00 68 1000.7
20260903220148 68 187 3.0 4.0 0.00 0.00 0.00 68 1000.5
20260903215644 68 184 3.0 4.0 0.00 0.00 0.00 67 1000.6
20260903215140 67 195 3.0 4.0 0.00 0.00 0.00 69 1000.4
20260903214636 67 192 2.0 4.0 0.00 0.00 0.00 72 1000.3
20260903214111 69 179 3.0 4.0 0.00 0.00 0.00 67 1000.4
20260903213837 69 182 3.0 4.0 0.00 0.00 0.00 64 1000.4
20260903213332 67 180 4.0 4.0 0.00 0.00 0.00 67 1000.1
20260903212809 65 181 3.0 4.0 0.00 0.00 0.00 72 1000.2
20260903212034 65 187 4.0 4.0 0.00 0.00 0.00 73 1000.2
20260903211521 65 184 3.0 4.0 0.00 0.00 0.00 74 999.9
20260903211016 65 185 3.0 4.0 0.00 0.00 0.00 73 1000.1
20260903210512 64 183 4.0 5.0 0.00 0.00 0.00 73 999.9
20260903210008 63 181 4.0 5.0 0.00 0.00 0.00 74 999.9
20260903205503 62 180 4.0 5.0 0.00 0.00 0.00 77 999.9
20260903204948 61 184 4.0 5.0 0.00 0.00 0.00 78 999.7
20260903204433 60 179 4.0 5.0 0.00 0.00 0.00 79 999.7
20260903203919 59 173 4.0 5.0 0.00 0.00 0.00 82 999.6
20260903203414 58 177 4.0 5.0 0.00 0.00 0.00 82 999.6
20260903202923 59 181 4.0 5.0 0.00 0.00 0.00 82 999.6
20260903202418 58 176 4.0 5.0 0.00 0.00 0.00 83 999.6
20260903201851 58 172 4.0 5.0 0.00 0.00 0.00 83 999.4
20260903201347 58 178 4.0 5.0 0.00 0.00 0.00 83 999.5
20260903200833 58 178 4.0 5.0 0.00 0.00 0.00 83 999.4
20260903200329 58 179 4.0 6.0 0.00 0.00 0.00 82 999.1
20260903195825 58 174 4.0 6.0 0.00 0.00 0.00 82 999.2
20260903195311 58 179 4.0 5.0 0.00 0.00 0.00 82 999.3
20260903194807 58 180 4.0 5.0 0.00 0.00 0.00 82 999.2
20260903194254 58 179 5.0 5.0 0.00 0.00 0.00 82 998.9
20260903193748 58 176 4.0 5.0 0.00 0.00 0.00 81 999.0
20260903193234 59 177 4.0 5.0 0.00 0.00 0.00 81 998.8
20260903192730 59 179 4.0 5.0 0.00 0.00 0.00 82 998.8
20260903192226 58 176 4.0 5.0 0.00 0.00 0.00 83 998.8
20260903191722 58 176 4.0 5.0 0.00 0.00 0.00 83 998.8
20260903191217 58 176 4.0 5.0 0.00 0.00 0.00 83 998.7
20260903190716 58 175 4.0 6.0 0.00 0.00 0.00 83 998.6
20260903190217 58 175 4.0 6.0 0.00 0.00 0.00 83 998.7
20260903185714 58 171 4.0 5.0 0.00 0.00 0.00 84 998.4
20260903185146 58 180 4.0 5.0 0.00 0.00 0.00 84 998.2
20260903184646 58 180 4.0 5.0 0.00 0.00 0.00 83 998.4
20260903184401 58 180 4.0 5.0 0.00 0.00 0.00 83 998.5
20260903183615 58 177 4.0 5.0 0.00 0.00 0.00 83 998.3
20260903183334 58 181 3.0 5.0 0.00 0.00 0.00 83 998.1
20260903183051 58 180 3.0 5.0 0.00 0.00 0.00 83 998.0
20260903182054 58 180 3.0 5.0 0.00 0.00 0.00 84 997.9
20260903181545 58 178 4.0 5.0 0.00 0.00 0.00 84 997.9
20260903181311 58 174 4.0 5.0 0.00 0.00 0.00 83 997.8
20260903180747 59 176 4.0 5.0 0.00 0.00 0.00 83 997.8
20260903180014 59 177 4.0 5.0 0.00 0.00 0.00 83 997.8
20260903175512 58 176 3.0 5.0 0.00 0.00 0.00 83 997.6
20260903175009 58 176 4.0 5.0 0.00 0.00 0.00 83 997.7
20260903174455 59 179 4.0 5.0 0.00 0.00 0.00 82 997.6
20260903173944 59 179 4.0 5.0 0.00 0.00 0.00 81 997.8
20260903173437 59 180 4.0 5.0 0.00 0.00 0.00 81 997.7
20260903172921 59 173 4.0 5.0 0.00 0.00 0.00 81 997.7
20260903172417 59 175 4.0 5.0 0.00 0.00 0.00 82 997.5
20260903171914 59 180 3.0 5.0 0.00 0.00 0.00 82 997.6
20260903171359 59 179 4.0 5.0 0.00 0.00 0.00 82 997.7
20260903170855 60 179 4.0 5.0 0.00 0.00 0.00 79 997.4
20260903170351 60 171 4.0 6.0 0.00 0.00 0.00 79 997.6
20260903165836 60 176 4.0 6.0 0.00 0.00 0.00 77 997.4
20260903165332 61 178 4.0 5.0 0.00 0.00 0.00 77 997.4
20260903164828 61 182 4.0 6.0 0.00 0.00 0.00 77 997.3
20260903164313 60 178 4.0 6.0 0.00 0.00 0.00 77 997.4
20260903163808 61 174 4.0 6.0 0.00 0.00 0.00 77 997.4
20260903163303 61 177 5.0 6.0 0.00 0.00 0.00 76 997.2
20260903162750 62 171 4.0 6.0 0.00 0.00 0.00 76 997.4
20260903162500 62 171 5.0 6.0 0.00 0.00 0.00 75 997.4
20260903161731 62 173 4.0 6.0 0.00 0.00 0.00 73 997.5
20260903161226 63 163 5.0 6.0 0.00 0.00 0.00 73 997.4
20260903160711 63 176 4.0 5.0 0.00 0.00 0.00 73 997.2
20260903160416 63 177 4.0 5.0 0.00 0.00 0.00 72 997.1
20260903155914 63 180 3.0 5.0 0.00 0.00 0.00 72 997.1
20260903155149 63 176 4.0 5.0 0.00 0.00 0.00 72 997.3
20260903154614 63 177 4.0 5.0 0.00 0.00 0.00 72 997.1
20260903154335 63 177 4.0 5.0 0.00 0.00 0.00 72 997.3
20260903153605 63 180 4.0 6.0 0.00 0.00 0.00 72 997.1
20260903153051 63 176 5.0 6.0 0.00 0.00 0.00 72 997.2
20260903152805 63 175 4.0 5.0 0.00 0.00 0.00 74 997.2
20260903152043 63 183 3.0 5.0 0.00 0.00 0.00 74 997.2
20260903151540 63 180 4.0 5.0 0.00 0.00 0.00 74 997.1
20260903151035 63 180 4.0 5.0 0.00 0.00 0.00 72 997.1
20260903150531 64 182 3.0 5.0 0.00 0.00 0.00 72 997.0
20260903150027 65 188 3.0 5.0 0.00 0.00 0.00 68 997.2
20260903145509 65 180 4.0 5.0 0.00 0.00 0.00 66 997.1
20260903145009 65 178 4.0 5.0 0.00 0.00 0.00 65 997.1
20260903144510 66 187 4.0 5.0 0.00 0.00 0.00 64 997.1
20260903144010 66 183 4.0 5.0 0.00 0.00 0.00 64 997.1
20260903143507 65 178 3.0 5.0 0.00 0.00 0.00 66 997.2
20260903143002 65 176 4.0 5.0 0.00 0.00 0.00 68 997.3
20260903142723 65 178 4.0 5.0 0.00 0.00 0.00 67 997.3
20260903141954 65 175 3.0 5.0 0.00 0.00 0.00 68 997.2
20260903141448 65 179 4.0 5.0 0.00 0.00 0.00 69 997.3
20260903140944 65 182 4.0 4.0 0.00 0.00 0.00 69 997.1
20260903140440 65 186 3.0 4.0 0.00 0.00 0.00 70 997.0
20260903135938 65 181 3.0 4.0 0.00 0.00 0.00 70 997.1
20260903135437 64 179 3.0 5.0 0.00 0.00 0.00 72 997.0
20260903134917 64 175 3.0 5.0 0.00 0.00 0.00 72 997.0
20260903134413 64 175 4.0 5.0 0.00 0.00 0.00 71 997.0
20260903134128 64 170 4.0 5.0 0.00 0.00 0.00 71 997.0
20260903133354 65 181 4.0 5.0 0.00 0.00 0.00 71 996.9
20260903132903 64 180 4.0 5.0 0.00 0.00 0.00 71 997.0
20260903132336 65 178 4.0 5.0 0.00 0.00 0.00 71 996.9
20260903131821 65 181 4.0 5.0 0.00 0.00 0.00 71 996.8
20260903131318 65 182 4.0 5.0 0.00 0.00 0.00 71 996.8
20260903130814 65 173 4.0 5.0 0.00 0.00 0.00 71 996.9
20260903130533 65 178 4.0 5.0 0.00 0.00 0.00 72 997.0
20260903125806 65 173 4.0 5.0 0.00 0.00 0.00 72 997.0
20260903125306 65 184 3.0 4.0 0.00 0.00 0.00 71 996.9
20260903124806 66 190 4.0 5.0 0.00 0.00 0.00 70 996.9
20260903124526 66 181 4.0 5.0 0.00 0.00 0.00 69 996.7
20260903123757 66 177 4.0 4.0 0.00 0.00 0.00 68 996.9
20260903123512 66 184 3.0 4.0 0.00 0.00 0.00 68 996.7
20260903122749 66 180 3.0 4.0 0.00 0.00 0.00 68 996.9
20260903122245 66 182 3.0 4.0 0.00 0.00 0.00 70 997.0
20260903121740 66 183 4.0 5.0 0.00 0.00 0.00 70 996.9
20260903121721 67 205 2.0 5.0 0.00 0.00 0.00 68 996.7
20260903120735 68 176 3.0 5.0 0.00 0.00 0.00 65 996.8
20260903120235 69 182 4.0 5.0 0.00 0.00 0.00 64 996.9
20260903115734 69 180 3.0 5.0 0.00 0.00 0.00 61 996.7
20260903115220 70 177 4.0 5.0 0.00 0.00 0.00 59 996.8
20260903114716 71 174 4.0 5.0 0.00 0.00 0.00 56 996.7
20260903114212 72 182 3.0 5.0 0.00 0.00 0.00 54 996.6
20260903113708 72 179 4.0 5.0 0.00 0.00 0.00 52 996.7
20260903113425 72 175 3.0 5.0 0.00 0.00 0.00 51 996.7
20260903112659 72 180 4.0 5.0 0.00 0.00 0.00 51 996.6
20260903112628 72 165 4.0 5.0 0.00 0.00 0.00 51 996.5
20260903111905 72 178 4.0 5.0 0.00 0.00 0.00 52 996.5
20260903111136 73 175 4.0 5.0 0.00 0.00 0.00 51 996.3
20260903110632 72 181 3.0 5.0 0.00 0.00 0.00 52 996.3
20260903110118 72 179 4.0 5.0 0.00 0.00 0.00 52 996.5
20260903105613 72 179 4.0 5.0 0.00 0.00 0.00 52 996.4
20260903105059 72 183 4.0 5.0 0.00 0.00 0.00 52 996.3
20260903104607 72 185 4.0 5.0 0.00 0.00 0.00 52 996.3
20260903104051 73 180 3.0 5.0 0.00 0.00 0.00 52 996.2
20260903103546 73 180 4.0 5.0 0.00 0.00 0.00 52 996.0
20260903103042 73 182 4.0 5.0 0.00 0.00 0.00 52 996.1
20260903102530 73 183 4.0 5.0 0.00 0.00 0.00 53 996.0
20260903102013 73 189 3.0 5.0 0.00 0.00 0.00 54 996.0
20260903101509 73 182 3.0 4.0 0.00 0.00 0.00 52 995.8
20260903101005 74 173 4.0 5.0 0.00 0.00 0.00 52 995.8
20260903100500 74 188 2.0 5.0 0.00 0.00 0.00 51 995.9
20260903095957 74 185 3.0 5.0 0.00 0.00 0.00 50 995.8
20260903095452 74 190 2.0 5.0 0.00 0.00 0.00 50 995.7
20260903094927 74 203 3.0 4.0 0.00 0.00 0.00 51 995.8
20260903094423 75 191 3.0 4.0 0.00 0.00 0.00 49 995.5
20260903094148 75 188 3.0 4.0 0.00 0.00 0.00 49 995.6
20260903093415 75 182 3.0 4.0 0.00 0.00 0.00 48 995.4
20260903093142 75 186 3.0 4.0 0.00 0.00 0.00 48 995.5
20260903092400 76 178 3.0 4.0 0.00 0.00 0.00 47 995.6
20260903092118 76 182 4.0 4.0 0.00 0.00 0.00 46 995.4
20260903091400 76 178 4.0 5.0 0.00 0.00 0.00 45 995.4
20260903091122 76 183 3.0 5.0 0.00 0.00 0.00 44 995.5
20260903090403 77 190 3.0 5.0 0.00 0.00 0.00 44 995.4
20260903085846 77 182 3.0 5.0 0.00 0.00 0.00 44 995.4
20260903085342 77 181 4.0 5.0 0.00 0.00 0.00 43 995.0
20260903084837 77 180 4.0 5.0 0.00 0.00 0.00 43 995.2
20260903084323 77 182 4.0 5.0 0.00 0.00 0.00 43 995.1
20260903083819 77 184 3.0 5.0 0.00 0.00 0.00 43 994.9
20260903083315 77 181 4.0 5.0 0.00 0.00 0.00 42 995.1
20260903083033 78 180 4.0 4.0 0.00 0.00 0.00 43 994.9
20260903082306 78 180 3.0 4.0 0.00 0.00 0.00 43 995.0
20260903082020 78 180 3.0 4.0 0.00 0.00 0.00 43 994.8
20260903081513 78 173 4.0 5.0 0.00 0.00 0.00 43 994.7
20260903080734 79 182 3.0 5.0 0.00 0.00 0.00 42 994.7
20260903080218 79 181 3.0 5.0 0.00 0.00 0.00 42 994.6
20260903075714 79 190 3.0 5.0 0.00 0.00 0.00 41 994.2
20260903075210 79 180 4.0 6.0 0.00 0.00 0.00 42 994.4
20260903074706 80 192 3.0 6.0 0.00 0.00 0.00 42 994.3
20260903074157 80 180 4.0 5.0 0.00 0.00 0.00 41 994.2
20260903073658 80 186 4.0 6.0 0.00 0.00 0.00 40 994.5
20260903073420 81 184 3.0 6.0 0.00 0.00 0.00 40 994.4
20260903072921 81 185 3.0 6.0 0.00 0.00 0.00 40 994.2
20260903072414 81 184 4.0 5.0 0.00 0.00 0.00 39 994.2
20260903071651 81 176 5.0 6.0 0.00 0.00 0.00 38 994.3
20260903071146 82 180 4.0 6.0 0.00 0.00 0.00 38 994.1
20260903070642 82 189 3.0 6.0 0.00 0.00 0.00 39 993.9
20260903070150 82 183 5.0 7.0 0.00 0.00 0.00 39 994.4
20260903065633 82 175 4.0 7.0 0.00 0.00 0.00 39 994.1
20260903065126 83 182 4.0 6.0 0.00 0.00 0.00 39 994.0
20260903064626 83 187 5.0 6.0 0.00 0.00 0.00 39 993.9
20260903064125 83 182 4.0 6.0 0.00 0.00 0.00 39 993.8
20260903063625 83 185 3.0 9.0 0.00 0.00 0.00 39 994.0
20260903063112 83 195 4.0 9.0 0.00 0.00 0.00 38 993.8
20260903062826 83 179 5.0 7.0 0.00 0.00 0.00 38 994.0
20260903062104 84 180 3.0 9.0 0.00 0.00 0.00 39 994.0
20260903061600 84 182 4.0 9.0 0.00 0.00 0.00 39 993.9
20260903061056 84 179 3.0 9.0 0.00 0.00 0.00 38 993.9
20260903060551 84 171 5.0 9.0 0.00 0.00 0.00 38 993.9
20260903060100 84 180 4.0 9.0 0.00 0.00 0.00 40 994.1
20260903055533 84 186 4.0 9.0 0.00 0.00 0.00 40 994.1
20260903055018 84 182 6.0 9.0 0.00 0.00 0.00 37 994.1
20260903054514 84 194 4.0 9.0 0.00 0.00 0.00 37 993.9
20260903054010 85 169 6.0 9.0 0.00 0.00 0.00 37 994.0
20260903053455 85 166 3.0 9.0 0.00 0.00 0.00 39 994.1
20260903052951 85 181 5.0 9.0 0.00 0.00 0.00 38 994.1
20260903052446 85 180 5.0 8.0 0.00 0.00 0.00 39 994.0
20260903051943 85 199 6.0 8.0 0.00 0.00 0.00 40 994.3
20260903051439 85 192 5.0 9.0 0.00 0.00 0.00 40 994.3
20260903050947 85 182 5.0 9.0 0.00 0.00 0.00 39 994.1
20260903050430 85 190 5.0 8.0 0.00 0.00 0.00 38 994.2
20260903045926 85 187 4.0 8.0 0.00 0.00 0.00 39 994.3
20260903045423 85 182 6.0 9.0 0.00 0.00 0.00 39 994.3
20260903044923 85 180 4.0 9.0 0.00 0.00 0.00 39 994.4
20260903044641 86 170 6.0 9.0 0.00 0.00 0.00 38 994.5
20260903044137 86 177 7.0 8.0 0.00 0.00 0.00 38 994.6
20260903043414 86 192 4.0 9.0 0.00 0.00 0.00 38 994.6
20260903042910 86 169 5.0 9.0 0.00 0.00 0.00 38 994.8
20260903042407 87 173 5.0 10.0 0.00 0.00 0.00 39 994.7
20260903041902 86 180 5.0 10.0 0.00 0.00 0.00 39 994.8
20260903041358 87 171 6.0 8.0 0.00 0.00 0.00 38 994.7
20260903040854 87 179 4.0 7.0 0.00 0.00 0.00 37 994.9
20260903040352 87 190 3.0 8.0 0.00 0.00 0.00 37 994.7
20260903035851 87 173 6.0 9.0 0.00 0.00 0.00 37 994.9
20260903035342 87 189 4.0 9.0 0.00 0.00 0.00 37 994.7
20260903034838 86 189 4.0 8.0 0.00 0.00 0.00 36 994.8
20260903034539 86 179 4.0 12.0 0.00 0.00 0.00 37 994.8
20260903033820 86 183 8.0 12.0 0.00 0.00 0.00 37 995.0
20260903033542 87 163 6.0 8.0 0.00 0.00 0.00 36 995.1
20260903032821 87 175 4.0 9.0 0.00 0.00 0.00 38 995.2
20260903032316 87 197 4.0 9.0 0.00 0.00 0.00 35 995.1
20260903031813 87 174 6.0 9.0 0.00 0.00 0.00 37 995.3
20260903031309 87 168 6.0 9.0 0.00 0.00 0.00 34 995.2
20260903030755 88 171 5.0 9.0 0.00 0.00 0.00 39 995.3
20260903030251 87 202 6.0 10.0 0.00 0.00 0.00 37 995.5
20260903025746 86 185 7.0 11.0 0.00 0.00 0.00 35 995.6
20260903025242 86 195 6.0 11.0 0.00 0.00 0.00 35 995.8
20260903024737 86 182 5.0 12.0 0.00 0.00 0.00 37 995.8
20260903024233 86 175 6.0 12.0 0.00 0.00 0.00 35 995.9
20260903023728 86 176 8.0 12.0 0.00 0.00 0.00 36 996.0
20260903023214 86 182 3.0 11.0 0.00 0.00 0.00 36 996.4
20260903022710 86 185 3.0 11.0 0.00 0.00 0.00 36 996.3
20260903022206 85 164 5.0 10.0 0.00 0.00 0.00 37 996.4
20260903021651 85 175 5.0 9.0 0.00 0.00 0.00 40 996.6
20260903021406 85 240 3.0 9.0 0.00 0.00 0.00 38 996.4
20260903020648 85 179 3.0 8.0 0.00 0.00 0.00 41 996.8
20260903020148 85 177 3.0 8.0 0.00 0.00 0.00 39 996.7
20260903015644 84 172 5.0 8.0 0.00 0.00 0.00 40 996.8
20260903015140 83 194 3.0 7.0 0.00 0.00 0.00 44 996.7
20260903014853 81 174 4.0 6.0 0.00 0.00 0.00 44 997.0
20260903014130 81 183 6.0 7.0 0.00 0.00 0.00 44 997.0
20260903013625 82 178 3.0 7.0 0.00 0.00 0.00 44 997.0
20260903013117 82 183 4.0 8.0 0.00 0.00 0.00 43 997.3
20260903012617 83 180 4.0 8.0 0.00 0.00 0.00 43 997.4
20260903012113 82 170 4.0 8.0 0.00 0.00 0.00 43 997.3
20260903011609 83 169 5.0 8.0 0.00 0.00 0.00 43 997.4
20260903011318 85 168 6.0 7.0 0.00 0.00 0.00 39 997.5
20260903010547 86 174 4.0 7.0 0.00 0.00 0.00 38 997.7
20260903010059 84 186 3.0 7.0 0.00 0.00 0.00 41 997.8
20260903005543 85 173 5.0 9.0 0.00 0.00 0.00 41 997.9
20260903005041 85 186 4.0 10.0 0.00 0.00 0.00 39 997.8
20260903004537 86 180 7.0 10.0 0.00 0.00 0.00 38 998.0
20260903004032 86 180 3.0 7.0 0.00 0.00 0.00 39 998.0
20260903003528 86 173 4.0 6.0 0.00 0.00 0.00 42 998.1
20260903003014 85 171 4.0 7.0 0.00 0.00 0.00 39 998.2
20260903002510 84 195 3.0 7.0 0.00 0.00 0.00 43 998.2
20260903002006 84 177 4.0 6.0 0.00 0.00 0.00 42 998.3
20260903001500 84 169 4.0 6.0 0.00 0.00 0.00 44 998.5
20260903000956 84 173 5.0 6.0 0.00 0.00 0.00 42 998.6
20260903000929 84 182 4.0 6.0 0.00 0.00 0.00 44 998.6
20260903000211 84 180 3.0 6.0 0.00 0.00 0.00 44 998.7
20260902235443 82 172 4.0 6.0 0.00 0.00 0.00 46 998.6
20260902234929 81 191 4.0 6.0 0.00 0.00 0.00 48 998.7
20260902234635 79 184 5.0 7.0 0.00 0.00 0.00 50 998.8
20260902233910 80 167 4.0 7.0 0.00 0.00 0.00 47 998.8
20260902233406 80 175 6.0 6.0 0.00 0.00 0.00 47 998.8
20260902232903 78 178 4.0 6.0 0.00 0.00 0.00 48 998.8
20260902232600 77 167 4.0 6.0 0.00 0.00 0.00 49 998.9
20260902231844 77 186 5.0 6.0 0.00 0.00 0.00 50 998.8
20260902231344 78 176 4.0 6.0 0.00 0.00 0.00 50 998.8
20260902230844 81 202 4.0 6.0 0.00 0.00 0.00 47 998.7
20260902230331 80 180 4.0 6.0 0.00 0.00 0.00 47 998.8
20260902225826 79 171 3.0 6.0 0.00 0.00 0.00 48 998.9
20260902225322 80 194 3.0 6.0 0.00 0.00 0.00 46 999.0
20260902224818 79 180 3.0 6.0 0.00 0.00 0.00 49 998.7
20260902224313 78 206 2.0 5.0 0.00 0.00 0.00 49 999.0
20260902223759 79 205 2.0 5.0 0.00 0.00 0.00 48 998.9
20260902223307 80 171 5.0 5.0 0.00 0.00 0.00 49 999.1
20260902222751 79 175 3.0 6.0 0.00 0.00 0.00 46 999.0
20260902222247 78 188 3.0 6.0 0.00 0.00 0.00 48 998.9
20260902221741 78 173 4.0 5.0 0.00 0.00 0.00 49 998.9
20260902221505 77 168 3.0 5.0 0.00 0.00 0.00 48 998.7